Newcastle, WY

3:38 AM MDT on July 26, 2017 (GMT -0600)
Mondell

Weather History for KECS - September, 2013

Change the Weather History Date:

Monday, September 16, 2013

  Actual Average (KCUT) Record (KCUT)
Temperature  
Mean Temperature 62 °F -  
Max Temperature 73 °F 68 °F 90 °F (1948)
Min Temperature 51 °F 39 °F 23 °F (1943)
Degree Days  
Heating Degree Days 3    
Growing Degree Days 12 (Base 50)    
Moisture  
Dew Point 49 °F    
Average Humidity 67    
Maximum Humidity 82    
Minimum Humidity 44    
Precipitation  
Precipitation 0.00 in - - ()
Sea Level Pressure  
Sea Level Pressure 30.10 in    
Wind  
Wind Speed 16 mph (SE)    
Max Wind Speed 22 mph    
Max Gust Speed 31 mph    
Averages and records for this station are not official NWS values.
T = Trace of Precipitation, MM = Missing Value Source: NWS Daily Summary

Daily Weather History Graph

Daily Weather History Graph

Search for Another Location

Airport or City:

Trip Planner

Search our weather history database for the weather conditions in past years. The results will help you decide how hot, cold, wet, or windy it might be!

Date:

Astronomy

Sep. 16, 2013 Rise Set
Actual Time 6:37 AM MDT 7:05 PM MDT
Civil Twilight 6:09 AM MDT 7:34 PM MDT
Nautical Twilight 5:34 AM MDT 8:08 PM MDT
Astronomical Twilight 4:59 AM MDT 8:43 PM MDT
Moon 5:19 PM MDT (9/16) 3:21 AM MDT (9/16)
Length of Visible Light 13h 24m
Length of Day
12h 27m
Waxing Gibbous, 90% of the Moon is Illuminated
Sep 16
Waxing Gibbous
Sep 19
Full
Sep 26
Last Quarter
Oct 4
New
Oct 11
First Quarter

Hourly Weather History & Observations

Time (MDT) Temp. Dew Point Humidity Pressure Visibility Wind Dir Wind Speed Gust Speed Precip Events Conditions
12:15 AM 53.6 °F 46.4 °F 77% 30.27 in - ESE 16.1 mph - N/A   Overcast
12:35 AM 53.6 °F 46.4 °F 77% 30.26 in - ESE 15.0 mph 21.9 mph N/A   Scattered Clouds
12:55 AM 53.6 °F 46.4 °F 77% 30.26 in - SE 17.3 mph 21.9 mph N/A   Clear
1:15 AM 51.8 °F 46.4 °F 82% 30.25 in - SE 12.7 mph 18.4 mph N/A   Unknown
1:35 AM 51.8 °F 46.4 °F 82% 30.25 in - SE 11.5 mph - N/A   Clear
1:55 AM 51.8 °F 46.4 °F 82% 30.25 in - SE 13.8 mph - N/A   Clear
2:15 AM 51.8 °F 46.4 °F 82% 30.25 in - SE 12.7 mph - N/A   Mostly Cloudy
2:35 AM 53.6 °F 46.4 °F 77% 30.24 in - SE 13.8 mph 17.3 mph N/A   Overcast
2:55 AM 53.6 °F 48.2 °F 82% 30.24 in - SE 11.5 mph 17.3 mph N/A   Overcast
3:15 AM 53.6 °F 48.2 °F 82% 30.24 in - SE 10.4 mph - N/A   Overcast
3:35 AM 51.8 °F 46.4 °F 82% 30.23 in - SE 11.5 mph - N/A   Overcast
3:55 AM 51.8 °F 46.4 °F 82% 30.23 in - SE 13.8 mph - N/A   Overcast
4:15 AM 53.6 °F 46.4 °F 77% 30.23 in - SE 15.0 mph 19.6 mph N/A   Overcast
4:35 AM 53.6 °F 46.4 °F 77% 30.22 in - SE 15.0 mph 20.7 mph N/A   Overcast
4:55 AM 53.6 °F 46.4 °F 77% 30.21 in - SE 15.0 mph 21.9 mph N/A   Overcast
5:15 AM 51.8 °F 46.4 °F 82% 30.21 in - SSE 12.7 mph - N/A   Overcast
5:35 AM 51.8 °F 46.4 °F 82% 30.21 in - SE 13.8 mph 23.0 mph N/A   Overcast
5:55 AM 51.8 °F 46.4 °F 82% 30.21 in - SE 13.8 mph 20.7 mph N/A   Overcast
6:15 AM 51.8 °F 46.4 °F 82% 30.20 in - SE 15.0 mph - N/A   Overcast
6:35 AM 51.8 °F 46.4 °F 82% 30.20 in - ESE 13.8 mph 20.7 mph N/A   Overcast
6:55 AM 51.8 °F 46.4 °F 82% 30.19 in - ESE 17.3 mph 21.9 mph N/A   Overcast
7:15 AM 53.6 °F 46.4 °F 77% 30.19 in - ESE 20.7 mph 27.6 mph N/A   Overcast
7:35 AM 53.6 °F 46.4 °F 77% 30.19 in - SE 18.4 mph 25.3 mph N/A   Overcast
7:55 AM 53.6 °F 48.2 °F 82% 30.19 in - SE 15.0 mph 23.0 mph N/A   Overcast
8:15 AM 53.6 °F 48.2 °F 82% 30.19 in - SE 19.6 mph 23.0 mph N/A   Overcast
8:35 AM 53.6 °F 48.2 °F 82% 30.18 in - SE 18.4 mph 25.3 mph N/A   Overcast
8:55 AM 55.4 °F 48.2 °F 77% 30.18 in - SE 17.3 mph 27.6 mph N/A   Overcast
9:15 AM 55.4 °F 48.2 °F 77% 30.18 in - SE 15.0 mph 26.5 mph N/A   Overcast
9:35 AM 55.4 °F 48.2 °F 77% 30.17 in - SE 18.4 mph 26.5 mph N/A   Overcast
9:55 AM 57.2 °F 48.2 °F 72% 30.17 in - SE 18.4 mph 26.5 mph N/A   Overcast
10:15 AM 57.2 °F 48.2 °F 72% 30.16 in - SE 20.7 mph 28.8 mph N/A   Overcast
10:35 AM 59.0 °F 48.2 °F 67% 30.16 in - SE 17.3 mph 23.0 mph N/A   Overcast
10:55 AM 59.0 °F 48.2 °F 67% 30.15 in - SE 20.7 mph 25.3 mph N/A   Overcast
11:15 AM 59.0 °F 50.0 °F 72% 30.15 in - SE 16.1 mph 24.2 mph N/A   Overcast
11:35 AM 60.8 °F 50.0 °F 68% 30.14 in - SE 15.0 mph 23.0 mph N/A   Unknown
11:55 AM 62.6 °F 50.0 °F 63% 30.12 in - ESE 19.6 mph 25.3 mph N/A   Overcast
12:15 PM 64.4 °F 50.0 °F 59% 30.11 in - SE 17.3 mph 25.3 mph N/A   Overcast
12:35 PM 64.4 °F 50.0 °F 59% 30.10 in - ESE 20.7 mph 27.6 mph N/A   Mostly Cloudy
12:55 PM 66.2 °F 50.0 °F 56% 30.09 in - SE 21.9 mph 31.1 mph N/A   Mostly Cloudy
1:15 PM 68.0 °F 50.0 °F 52% 30.08 in - North - - N/A   Scattered Clouds
1:35 PM 69.8 °F 50.0 °F 49% 30.07 in - North - - N/A   Scattered Clouds
1:55 PM 69.8 °F 50.0 °F 49% 30.06 in - North - - N/A   Scattered Clouds
2:15 PM 69.8 °F 50.0 °F 49% 30.05 in - SE 18.4 mph - N/A   Clear
2:35 PM 69.8 °F 50.0 °F 49% 30.04 in - North - - N/A   Clear
2:55 PM 71.6 °F 50.0 °F 46% 30.03 in - North - - N/A   Clear
3:15 PM 71.6 °F 50.0 °F 46% 30.02 in - North - - N/A   Clear
3:35 PM 71.6 °F 50.0 °F 46% 30.02 in - North - - N/A   Clear
3:55 PM 71.6 °F 50.0 °F 46% 30.00 in - North - - N/A   Clear
4:15 PM 71.6 °F 50.0 °F 46% 30.00 in - North - - N/A   Clear
4:35 PM 73.4 °F 50.0 °F 44% 29.99 in - ESE 19.6 mph - N/A   Clear
4:55 PM 71.6 °F 50.0 °F 46% 29.98 in - North - - N/A   Clear
5:15 PM 71.6 °F 50.0 °F 46% 29.98 in - ESE 21.9 mph - N/A   Clear
5:35 PM 71.6 °F 50.0 °F 46% 29.97 in - ESE 21.9 mph 25.3 mph N/A   Clear
5:55 PM 69.8 °F 50.0 °F 49% 29.97 in - ESE 20.7 mph 28.8 mph N/A   Clear
6:15 PM 69.8 °F 50.0 °F 49% 29.97 in - ESE 19.6 mph 27.6 mph N/A   Clear
6:35 PM 68.0 °F 50.0 °F 52% 29.96 in - ESE 18.4 mph 25.3 mph N/A   Clear
6:55 PM 66.2 °F 51.8 °F 60% 29.96 in - ESE 20.7 mph 28.8 mph N/A   Clear
7:15 PM 64.4 °F 51.8 °F 64% 29.96 in - ESE 18.4 mph 25.3 mph N/A   Clear
7:35 PM 64.4 °F 50.0 °F 59% 29.96 in - ESE 18.4 mph 28.8 mph N/A   Clear
7:55 PM 62.6 °F 50.0 °F 63% 29.96 in - ESE 15.0 mph 24.2 mph N/A   Clear
8:15 PM 62.6 °F 51.8 °F 68% 29.96 in - ESE 17.3 mph 26.5 mph N/A   Clear
8:35 PM 62.6 °F 50.0 °F 63% 29.97 in - ESE 18.4 mph 27.6 mph N/A   Clear
8:55 PM 62.6 °F 51.8 °F 68% 29.97 in - ESE 17.3 mph 23.0 mph N/A   Clear
9:15 PM 62.6 °F 51.8 °F 68% 29.97 in - ESE 18.4 mph 24.2 mph N/A   Clear
9:35 PM 62.6 °F 51.8 °F 68% 29.97 in - ESE 16.1 mph 24.2 mph N/A   Clear
9:55 PM 62.6 °F 51.8 °F 68% 29.97 in - ESE 16.1 mph 21.9 mph N/A   Clear
10:15 PM 62.6 °F 51.8 °F 68% 29.97 in - ESE 15.0 mph - N/A   Clear
10:35 PM 62.6 °F 51.8 °F 68% 29.97 in - ESE 13.8 mph - N/A   Clear
10:55 PM 60.8 °F 51.8 °F 72% 29.97 in - ESE 13.8 mph - N/A   Clear
11:15 PM 60.8 °F 51.8 °F 72% 29.97 in - ESE 12.7 mph 17.3 mph N/A   Clear
11:35 PM 60.8 °F 51.8 °F 72% 29.97 in - ESE 11.5 mph - N/A   Clear
11:55 PM 60.8 °F 51.8 °F 72% 29.97 in - ESE 13.8 mph 17.3 mph N/A   Clear